Date String (YYYY-MM-DD hh:mm:ss) UTC,Instrument flags,absolute air pressure of the measurement (hPa),sample flow rate (lpm),inlet stack bypass flow (lpm),air temperature of the measurement (°C),ambient temperature measured by the external sensor (°C),aerosol sample conditioner tube jacket temperature (°C),OPC LED temperature (°C),internal box temperature (°C),relative humidity of the measurement (%),span deviation,mass concentration of particles derived from Lorenz-Mie calculation of OPC scattering (μg/m³),mass concentration of particles derived from Lorenz-Mie calculation of OPC scattering (μg/m³),mass concentration of particles derived from Lorenz-Mie calculation of OPC scattering (μg/m³)
DateTimeUTC,F1_M11,P_M11,Q1_M11,Q2_M11,T1_M11,T2_M11,T3_M11,T4_M11,T5_M11,U1_M11,ZSPAN_M11,X0_M11,X2_M11,X1_M11
2023-11-26 00:00:00,SystemResetWarning,0828.4,5.01,000.00,018.7,017.6,000.0,027.2,020.0,12.5,0001.4,0011.42,0007.51,0007.10
2023-11-26 00:01:00,SystemResetWarning,0828.4,5.01,000.00,018.7,017.6,000.0,027.2,020.0,12.5,0001.6,0011.43,0007.51,0007.11
2023-11-26 00:02:00,SystemResetWarning,0828.4,5.01,000.00,018.7,017.6,000.0,027.2,020.0,12.5,0001.9,0011.42,0007.52,0007.13
2023-11-26 00:03:00,SystemResetWarning,0828.4,5.00,000.00,018.7,017.6,000.0,027.2,020.0,12.5,0001.7,0011.35,0007.52,0007.14
2023-11-26 00:04:00,SystemResetWarning,0828.3,4.99,000.00,018.7,017.6,000.0,027.2,020.0,12.5,0001.6,0011.10,0007.52,0007.15
2023-11-26 00:05:00,SystemResetWarning,0828.4,5.00,000.00,018.7,017.6,000.0,027.2,020.0,12.6,0001.5,0010.66,0007.49,0007.13
2023-11-26 00:06:00,SystemResetWarning,0828.4,4.99,000.00,018.7,017.6,000.0,027.2,020.0,12.6,0002.1,0010.72,0007.50,0007.12
2023-11-26 00:07:00,SystemResetWarning,0828.4,5.00,000.00,018.7,017.6,000.0,027.2,020.0,12.6,0001.9,0010.77,0007.51,0007.12
2023-11-26 00:08:00,SystemResetWarning,0828.4,5.00,000.00,018.7,017.5,000.0,027.2,020.0,12.6,0001.7,0010.77,0007.51,0007.13
2023-11-26 00:09:00,SystemResetWarning,0828.4,5.00,000.00,018.7,017.5,000.0,027.1,020.3,12.6,0001.5,0010.23,0007.51,0007.14
2023-11-26 00:10:00,SystemResetWarning,0828.4,5.01,000.00,018.8,018.1,000.0,027.1,020.6,12.5,0001.5,0010.15,0007.50,0007.13
2023-11-26 00:11:00,SystemResetWarning,0828.4,4.99,000.00,018.9,018.8,000.0,027.1,020.8,12.4,0001.0,0010.29,0007.51,0007.13
2023-11-26 00:12:00,SystemResetWarning,0828.4,4.98,000.00,019.0,018.8,000.0,027.2,020.4,12.4,0000.4,0010.37,0007.54,0007.15
2023-11-26 00:13:00,SystemResetWarning,0828.4,5.01,000.00,018.9,018.6,000.0,027.2,020.1,12.5,0000.7,0010.32,0007.54,0007.15
2023-11-26 00:14:00,SystemResetWarning,0828.4,5.01,000.00,018.9,018.5,000.0,027.2,020.0,12.6,0000.9,0010.28,0007.54,0007.14
2023-11-26 00:15:00,SystemResetWarning,0828.3,5.00,000.00,018.8,018.3,000.0,027.2,020.0,12.6,0001.2,0010.29,0007.55,0007.12
2023-11-26 00:16:00,SystemResetWarning,0828.4,5.00,000.00,018.8,018.2,000.0,027.2,020.0,12.6,0001.6,0010.14,0007.54,0007.12
2023-11-26 00:17:00,SystemResetWarning,0828.4,5.00,000.00,018.8,018.1,000.0,027.2,020.0,12.6,0001.6,0010.06,0007.55,0007.12
2023-11-26 00:18:00,SystemResetWarning,0828.4,5.00,000.00,018.8,018.0,000.0,027.2,020.0,12.6,0001.8,0010.06,0007.56,0007.14
2023-11-26 00:19:00,SystemResetWarning,0828.4,5.00,000.00,018.8,017.9,000.0,027.2,020.0,12.6,0002.0,0010.01,0007.56,0007.14
2023-11-26 00:20:00,SystemResetWarning,0828.4,5.00,000.00,018.8,017.9,000.0,027.2,020.0,12.6,0002.3,0010.03,0007.58,0007.14
2023-11-26 00:21:00,SystemResetWarning,0828.4,5.00,000.00,018.7,017.8,000.0,027.2,020.0,12.6,0002.9,0010.05,0007.60,0007.15
2023-11-26 00:22:00,SystemResetWarning,0828.4,5.00,000.00,018.7,017.8,000.0,027.2,020.0,12.7,0003.3,0009.95,0007.60,0007.14
2023-11-26 00:23:00,SystemResetWarning,0828.5,5.00,000.00,018.7,017.8,000.0,027.2,020.0,12.7,0003.6,0009.89,0007.59,0007.14
2023-11-26 00:24:00,SystemResetWarning,0828.5,5.00,000.00,018.7,017.7,000.0,027.2,020.0,12.7,0003.5,0010.22,0007.61,0007.14
2023-11-26 00:25:00,SystemResetWarning,0828.6,5.00,000.00,018.7,017.7,000.0,027.2,020.0,12.7,0003.3,0010.28,0007.59,0007.14
2023-11-26 00:26:00,SystemResetWarning,0828.6,5.00,000.00,018.7,017.7,000.0,027.2,020.0,12.7,0003.2,0010.20,0007.60,0007.16
2023-11-26 00:27:00,SystemResetWarning,0828.6,4.99,000.00,018.7,017.6,000.0,027.2,020.0,12.8,0003.1,0010.24,0007.63,0007.17
2023-11-26 00:28:00,SystemResetWarning,0828.6,4.99,000.00,018.7,017.6,000.0,027.2,020.0,12.8,0003.0,0010.23,0007.64,0007.19
2023-11-26 00:29:00,SystemResetWarning,0828.6,5.00,000.00,018.7,017.6,000.0,027.2,020.0,12.8,0003.2,0010.40,0007.68,0007.20
2023-11-26 00:30:00,SystemResetWarning,0828.6,5.01,000.00,018.7,017.6,000.0,027.2,020.1,12.7,0003.4,0010.50,0007.70,0007.21
2023-11-26 00:31:00,SystemResetWarning,0828.6,5.01,000.00,018.8,017.9,000.0,027.1,020.4,12.7,0003.1,0010.56,0007.73,0007.23
2023-11-26 00:32:00,SystemResetWarning,0828.6,4.99,000.00,018.9,018.6,000.0,027.1,020.8,12.7,0002.8,0010.62,0007.75,0007.24
2023-11-26 00:33:00,SystemResetWarning,0828.5,4.99,000.00,018.9,018.7,000.0,027.2,020.5,12.6,0002.7,0010.63,0007.76,0007.26
2023-11-26 00:34:00,SystemResetWarning,0828.5,4.99,000.00,018.9,018.6,000.0,027.1,020.1,12.6,0002.6,0010.72,0007.81,0007.30
2023-11-26 00:35:00,SystemResetWarning,0828.6,5.00,000.00,018.9,018.5,000.0,027.2,020.0,12.7,0002.6,0010.48,0007.82,0007.32
2023-11-26 00:36:00,SystemResetWarning,0828.6,5.00,000.00,018.8,018.3,000.0,027.2,020.0,12.8,0002.7,0010.56,0007.84,0007.36
2023-11-26 00:37:00,SystemResetWarning,0828.6,5.00,000.00,018.8,018.2,000.0,027.2,020.0,12.8,0003.1,0010.57,0007.86,0007.39
2023-11-26 00:38:00,SystemResetWarning,0828.5,5.00,000.00,018.8,018.1,000.0,027.2,020.0,12.8,0003.4,0010.60,0007.88,0007.42
2023-11-26 00:39:00,SystemResetWarning,0828.5,5.00,000.00,018.8,018.0,000.0,027.2,020.0,12.8,0003.3,0010.71,0007.91,0007.43
2023-11-26 00:40:00,SystemResetWarning,0828.5,4.99,000.00,018.8,018.0,000.0,027.2,020.0,12.7,0003.0,0010.64,0007.91,0007.44
2023-11-26 00:41:00,SystemResetWarning,0828.5,5.00,000.00,018.7,017.9,000.0,027.2,020.0,12.7,0002.8,0010.58,0007.94,0007.48
2023-11-26 00:42:00,SystemResetWarning,0828.5,5.01,000.00,018.7,017.9,000.0,027.2,020.0,12.7,0003.1,0010.52,0007.94,0007.51
2023-11-26 00:43:00,SystemResetWarning,0828.6,5.01,000.00,018.7,017.8,000.0,027.2,020.0,12.7,0002.9,0010.45,0007.94,0007.55
2023-11-26 00:44:00,SystemResetWarning,0828.6,5.00,000.00,018.7,017.8,000.0,027.2,020.0,12.8,0002.9,0010.49,0007.98,0007.60
2023-11-26 00:45:00,SystemResetWarning,0828.6,5.00,000.00,018.7,017.8,000.0,027.2,020.0,12.8,0002.6,0010.44,0007.99,0007.61
2023-11-26 00:46:00,SystemResetWarning,0828.6,4.99,000.00,018.7,017.7,000.0,027.2,020.0,12.8,0002.4,0010.40,0008.01,0007.65
2023-11-26 00:47:00,SystemResetWarning,0828.6,5.00,000.00,018.7,017.7,000.0,027.2,020.0,12.8,0002.2,0011.15,0008.04,0007.68
2023-11-26 00:48:00,SystemResetWarning,0828.6,5.00,000.00,018.7,017.7,000.0,027.2,020.0,12.8,0001.9,0011.36,0008.08,0007.71
2023-11-26 00:49:00,SystemResetWarning,0828.6,5.00,000.00,018.7,017.6,000.0,027.2,020.0,12.9,0001.4,0011.43,0008.14,0007.74
2023-11-26 00:50:00,SystemResetWarning,0828.6,5.00,000.00,018.7,017.6,000.0,027.2,020.0,12.9,0001.5,0011.40,0008.15,0007.78
2023-11-26 00:51:00,SystemResetWarning,0828.6,5.01,000.00,018.7,017.9,000.0,027.2,020.4,12.9,0001.4,0011.31,0008.18,0007.82
2023-11-26 00:52:00,SystemResetWarning,0828.6,5.01,000.00,018.9,018.6,000.0,027.1,020.7,12.9,0001.4,0011.52,0008.25,0007.87
2023-11-26 00:53:00,SystemResetWarning,0828.6,4.98,000.00,019.0,018.9,000.0,027.2,020.7,12.8,0001.0,0011.65,0008.31,0007.91
2023-11-26 00:54:00,SystemResetWarning,0828.6,4.99,000.00,019.0,018.8,000.0,027.2,020.3,12.8,0000.7,0011.69,0008.37,0007.97
2023-11-26 00:55:00,SystemResetWarning,0828.6,5.00,000.00,018.9,018.7,000.0,027.2,020.2,12.9,0000.4,0011.72,0008.41,0008.02
2023-11-26 00:56:00,SystemResetWarning,0828.6,5.00,000.00,018.9,018.6,000.0,027.2,020.1,12.9,0000.7,0011.74,0008.44,0008.05
2023-11-26 00:57:00,SystemResetWarning,0828.6,4.99,000.00,018.9,018.4,000.0,027.2,020.0,13.0,0000.8,0011.79,0008.49,0008.08
2023-11-26 00:58:00,SystemResetWarning,0828.6,5.00,000.00,018.8,018.3,000.0,027.2,020.0,13.0,0000.9,0011.21,0008.54,0008.12
2023-11-26 00:59:00,SystemResetWarning,0828.6,5.01,000.00,018.8,018.2,000.0,027.2,020.0,13.1,0001.1,0010.86,0008.58,0008.16
